Location: Cartignies
(50.0929°N, 3.8447°E)
Time: 14:10:37
(UTC+00:00)

Cosmos 1954 Rocket - Pass Details

Date: 12 January 2026
Orbit: 747 x 777 km, 74.0° (Epoch: 16 February)

Event Time Altitude Azimuth Distance (km) Brightness Sun altitude
Rises 16:41:26 0° 338° (NNW) 3,217 7.2 -5.7°
Reaches altitude 10° 16:43:52 10° 343° (NNW) 2,292 6.4 -6.0°
Maximum altitude 16:48:58 55° 61° (ENE) 915 4.1 -6.7°
Drops below altitude 10° 16:54:05 10° 139° (SE) 2,296 6.3 -7.5°
Sets 16:56:30 0° 144° (SE) 3,223 7.1 -7.8°
